Regional Weather Roundup
Issued by NWS

Home | Current Version | Previous Version | Text Only | Print | Product List | Glossary On
Versions: 1 2 3 4 5 6 7 8 9 10 11 12 13 14 15 16 17 18 19 20 21 22 23 24 25 26 27 28 29 30 31 32 33 34 35 36 37 38 39 40 41 42 43 44 45 46 47 48 49 50
000
ASUS43 KMPX 270310
RWRMN
WEATHER ROUNDUP FOR MINNESOTA
NATIONAL WEATHER SERVICE TWIN CITIES/CHANHASSEN MN
1000 PM CDT SUN MAR 26 2017


NOTE: "FAIR" INDICATES FEW OR NO CLOUDS BELOW 12,000 FEET WITH NO
SIGNIFICANT WEATHER AND/OR OBSTRUCTIONS TO VISIBILITY. N/A MEANS
CURRENT SKY AND/OR WEATHER CONDITIONS ARE NOT AVAILABLE.

MNZ060>063-068>070-270400-
   Twin Cities Metro

CITY           SKY/WX    TMP DP  RH WIND       PRES   REMARKS
TWIN CITIES    CLOUDY    39  35  86 VRB7      29.95R
ST PAUL        CLOUDY    39  38  96 N6        29.95R
CRYSTAL        CLOUDY    39  34  82 NE8       29.93R
BLAINE         CLOUDY    39  39 100 N7        29.93S
LAKEVILLE      CLOUDY    37  37 100 NW3       29.94R
EDEN PRAIRIE   CLOUDY    40  37  89 N3        29.93R
SOUTH ST PAUL  CLOUDY    40  38  93 N5        29.93S
LAKE ELMO      CLOUDY    37  37 100 N6        29.93F
$$
MNZ001>005-007-008-013>017-022>024-027-028-270400-
   Northwest Minnesota

CITY           SKY/WX    TMP DP  RH WIND       PRES   REMARKS
BEMIDJI        CLOUDY    37  31  81 CALM      29.93S
HALLOCK        FOG       34  34 100 CALM      29.96S VSB 1/4
ROSEAU         CLEAR     34  30  86 CALM      29.94F FOG
WARROAD        CLEAR     36  32  87 W5        29.94F
THIEF RVR FALL   N/A    N/A N/A N/A NW5       29.96S
CROOKSTON      PTCLDY    37  36  93 CALM      29.96F FOG
FOSSTON        MOCLDY    37  36  93 NW3       29.95S
DETROIT LAKES  PTCLDY    39  36  87 NW3       29.94F
MOORHEAD       CLOUDY    37  36  93 CALM      29.96S
PARK RAPIDS    CLOUDY    41  30  65 SE5       29.92S
MAHNOMEN       CLOUDY    38  36  91 N5        29.94S
$$
MNZ006-009>011-018-025>026-270400-
   North Central Minnesota

CITY           SKY/WX    TMP DP  RH WIND       PRES   REMARKS
BAUDETTE       CLEAR     31  28  89 CALM      29.93F
FLAG ISLAND    CLEAR     34  30  86 SE3       29.93F
INTL FALLS     CLOUDY    36  30  79 CALM      29.93S
WASKISH        CLOUDY    37  34  87 CALM      29.94S
BIG FORK       CLOUDY    36  30  80 CALM      29.92S
LONGVILLE      CLOUDY    36  30  80 CALM      29.92F
GRAND RAPIDS   CLOUDY    35  31  85 CALM      29.93F
CRANE LAKE     CLOUDY    32  27  80 CALM      29.94F
ORR            CLOUDY    36  28  75 CALM      29.90F
COOK           CLOUDY    36  28  75 CALM      29.92F
WALKER         MOCLDY    38  31  77 CALM      29.93S
$$
MNZ012-019>021-037-270400-
   Northeast Minnesota

CITY           SKY/WX    TMP DP  RH WIND       PRES   REMARKS
DULUTH         CLOUDY    32  31  96 CALM      29.92F FOG
ELY            PTCLDY    28  28 100 CALM      29.92S
HIBBING        CLOUDY    29  29 100 CALM      29.91F
EVELETH        PTCLDY    32  30  92 CALM      29.93S
DULUTH HARBOR  CLOUDY    36  34  93 CALM      29.97S
TWO HARBORS    CLOUDY    36  30  80 CALM      29.92F
SILVER BAY     CLOUDY    34  34 100 CALM      29.92F
GRAND MARAIS     N/A     35  33  92 CALM      29.96S
G MARAIS ARPRT FOG       30  27  86 CALM      29.92S VSB 1/4
$$
MNZ029>031-032-039>041-046>048-054>057-064-270400-
   West Central Minnesota

CITY           SKY/WX    TMP DP  RH WIND       PRES   REMARKS
FERGUS FALLS   PTCLDY    39  36  87 CALM      29.97F
WHEATON        CLOUDY    39  36  87 CALM      29.96S
MORRIS         PTCLDY    41  37  87 NW3       29.93S
ALEXANDRIA     CLOUDY    42  35  76 NW3       29.93S
ELBOW LAKE     FAIR      39  36  89 NW5       29.94F
WADENA         CLOUDY    39  34  81 CALM      29.93S
GLENWOOD       PTCLDY    41  36  81 CALM      29.94S
APPLETON       CLOUDY    39  36  87 CALM      29.94R
BENSON         CLOUDY    41  34  75 NE3       29.95S
ORTONVILLE     MOCLDY    39  36  87 CALM      29.94S
MADISON        PTCLDY    41  39  93 W3        29.95S
WILLMAR        CLOUDY    43  37  81 CALM      29.96R
$$
MNZ033>034-036-042>043-049>051-058-059-270400-
   Central Minnesota

CITY           SKY/WX    TMP DP  RH WIND       PRES   REMARKS
ST CLOUD       CLOUDY    37  37 100 CALM      29.94S
SAUK CENTRE    MOCLDY    38  34  87 CALM      29.94S
PAYNESVILLE      N/A     38  37  96 CALM      29.95R
AITKIN         CLOUDY    30  27  86 CALM      29.92S
PINE RIVER     CLOUDY    37  32  81 CALM      29.96F
BRAINERD       CLOUDY    34  30  85 CALM      29.93S
STAPLES        CLOUDY    37  32  81 CALM      29.93F
LONG PRAIRIE   MOCLDY    36  32  87 CALM      29.93F
LITTLE FALLS   CLEAR     32  32 100 CALM      29.94S
LITCHFIELD     CLOUDY    39  37  93 CALM      29.96R
BUFFALO        CLOUDY    38  36  92 N3        29.96R
MAPLE LAKE     CLOUDY    38  37  99 CALM      29.95R
HUTCHINSON     CLOUDY    39  38  94 NE5       29.97R
$$
MNZ037-044-045-052-053-270400-
   East Central Minnesota

CITY           SKY/WX    TMP DP  RH WIND       PRES   REMARKS
PRINCETON      CLOUDY    37  37 100 CALM      29.95R
MORA           CLOUDY    36  34  93 CALM      29.96S
CAMBRIDGE      CLOUDY    37  36  93 CALM      29.92F
RUSH CITY      CLOUDY    35  34  95 N3        29.94F
MOOSE LAKE     CLOUDY    34  32  93 CALM      29.92F
CLOQUET        FOG       34  30  86 CALM      29.93F VSB 1/2
MCGREGOR       PTCLDY    32  32 100 CALM      29.93F
$$
MNZ071>073-080-081-089-090-097-098-270400-
   Southwest Minnesota

CITY           SKY/WX    TMP DP  RH WIND       PRES   REMARKS
MONTEVIDEO     MOCLDY    41  36  81 NW3       29.97R
GRANITE FALLS  CLOUDY    43  39  85 W5        29.96R
CANBY          CLOUDY    38  37  93 CALM      29.97R
MARSHALL       CLOUDY    38  36  92 W6        29.96
REDWOOD FALLS  MOCLDY    40  36  86 SE3       29.95R
OLIVIA         CLOUDY    41  36  81 E3        29.95R
PIPESTONE      CLOUDY    41  36  81 CALM      29.96R
WINDOM         PTCLDY    39  39 100 CALM      29.95S
WORTHINGTON    CLOUDY    40  37  89 SW3       29.98R
JACKSON        CLOUDY    39  37  93 CALM      29.96R
TRACY          CLOUDY    41  39  93 W3        29.96R
SLAYTON        CLOUDY    39  37  93 NW6       29.96R
$$
MNZ065>067-074>077-082>085-091>093-270400-
   South Central Minnesota

CITY           SKY/WX    TMP DP  RH WIND       PRES   REMARKS
MANKATO        CLOUDY    39  37  92 NW5       29.96R
NEW ULM        CLOUDY    39  36  87 CALM      29.96R
ST JAMES       CLOUDY    39  37  93 CALM      29.97R
FAIRMONT       CLOUDY    40  37  89 N7        29.95R
GLENCOE        CLOUDY    39  39 100 CALM      29.95R
FARIBAULT      CLOUDY    39  39 100 NW3       29.95R FOG
OWATONNA       CLOUDY    39  37  93 W3        29.94R FOG
WASECA         CLOUDY    39  37  93 NW3       29.96R
ALBERT LEA     CLOUDY    39  39 100 N3        29.93S FOG
$$
MNZ078>079-086>088-094>096-270400-
   Southeast Minnesota

CITY           SKY/WX    TMP DP  RH WIND       PRES   REMARKS
ROCHESTER      CLOUDY    39  39 100 NW5       29.93R
RED WING       CLOUDY    41  39  93 CALM      29.92R
STANTON        CLOUDY    40  38  92 N5        29.93R FOG
DODGE CENTER   CLOUDY    39  37  93 CALM      29.93R FOG
WINONA         CLOUDY    41  37  87 CALM      29.92S
AUSTIN         DRIZZLE   39  37  93 CALM      29.93R
$$
ABBREVIATIONS USED IN REMARKS
   TC - TEMPERATURES IN CELSIUS
  WCI - WIND CHILL INDEX
   HX - HEAT INDEX
  VSB - VISIBILITY
$$




USA.gov is the U.S. government's official web portal to all federal, state and local government web resources and services.